Year,Month,Day,Hour,Minute,Value (Times are PST for temperature in C)
2014,09,14,00,00,14.10
2014,09,14,00,01,14.00
2014,09,14,00,02,13.90
2014,09,14,00,03,13.80
2014,09,14,00,04,13.80
2014,09,14,00,05,13.70
2014,09,14,00,06,13.60
2014,09,14,00,07,13.60
2014,09,14,00,08,13.50
2014,09,14,00,09,13.40
2014,09,14,00,10,13.40
2014,09,14,00,11,13.40
2014,09,14,00,12,13.30
2014,09,14,00,13,13.30
2014,09,14,00,14,13.20
2014,09,14,00,15,13.20
2014,09,14,00,16,13.20
2014,09,14,00,17,13.10
2014,09,14,00,18,13.10
2014,09,14,00,19,13.10
2014,09,14,00,20,13.00
2014,09,14,00,21,13.00
2014,09,14,00,22,12.90
2014,09,14,00,23,12.80
2014,09,14,00,24,12.80
2014,09,14,00,25,12.70
2014,09,14,00,26,12.70
2014,09,14,00,27,12.70
2014,09,14,00,28,12.70
2014,09,14,00,29,12.70
2014,09,14,00,30,12.70
2014,09,14,00,31,12.70
2014,09,14,00,32,12.70
2014,09,14,00,33,12.70
2014,09,14,00,34,12.70
2014,09,14,00,35,12.70
2014,09,14,00,36,12.70
2014,09,14,00,37,12.70
2014,09,14,00,38,12.70
2014,09,14,00,39,12.70
2014,09,14,00,40,12.70
2014,09,14,00,41,12.70
2014,09,14,00,42,12.60
2014,09,14,00,43,12.60
2014,09,14,00,44,12.50
2014,09,14,00,45,12.50
2014,09,14,00,46,12.50
2014,09,14,00,47,12.40
2014,09,14,00,48,12.40
2014,09,14,00,49,12.30
2014,09,14,00,50,12.30
2014,09,14,00,51,12.30
2014,09,14,00,52,12.30
2014,09,14,00,53,12.30
2014,09,14,00,54,12.20
2014,09,14,00,55,12.20
2014,09,14,00,56,12.20
2014,09,14,00,57,12.10
2014,09,14,00,58,12.20
2014,09,14,00,59,12.20
2014,09,14,01,00,12.30
2014,09,14,01,01,12.40
2014,09,14,01,02,12.50
2014,09,14,01,03,12.60
2014,09,14,01,04,12.60
2014,09,14,01,05,12.60
2014,09,14,01,06,12.60
2014,09,14,01,07,12.60
2014,09,14,01,08,12.50
2014,09,14,01,09,12.50
2014,09,14,01,10,12.40
2014,09,14,01,11,12.40
2014,09,14,01,12,12.40
2014,09,14,01,13,12.30
2014,09,14,01,14,12.40
2014,09,14,01,15,12.40
2014,09,14,01,16,12.40
2014,09,14,01,17,12.40
2014,09,14,01,18,12.50
2014,09,14,01,19,12.50
2014,09,14,01,20,12.50
2014,09,14,01,21,12.50
2014,09,14,01,22,12.50
2014,09,14,01,23,12.50
2014,09,14,01,24,12.50
2014,09,14,01,25,12.50
2014,09,14,01,26,12.40
2014,09,14,01,27,12.40
2014,09,14,01,28,12.30
2014,09,14,01,29,12.20
2014,09,14,01,30,12.10
2014,09,14,01,31,12.00
2014,09,14,01,32,12.00
2014,09,14,01,33,11.90
2014,09,14,01,34,11.80
2014,09,14,01,35,11.80
2014,09,14,01,36,11.70
2014,09,14,01,37,11.60
2014,09,14,01,38,11.60
2014,09,14,01,39,11.60
2014,09,14,01,40,11.60
2014,09,14,01,41,11.60
2014,09,14,01,42,11.60
2014,09,14,01,43,11.60
2014,09,14,01,44,11.60
2014,09,14,01,45,11.70
2014,09,14,01,46,11.80
2014,09,14,01,47,11.90
2014,09,14,01,48,12.00
2014,09,14,01,49,12.00
2014,09,14,01,50,12.00
2014,09,14,01,51,12.00
2014,09,14,01,52,12.00
2014,09,14,01,53,11.90
2014,09,14,01,54,11.90
2014,09,14,01,55,11.80
2014,09,14,01,56,11.80
2014,09,14,01,57,11.80
2014,09,14,01,58,11.80
2014,09,14,01,59,11.80
2014,09,14,02,00,11.80
2014,09,14,02,01,11.70
2014,09,14,02,02,11.60
2014,09,14,02,03,11.60
2014,09,14,02,04,11.50
2014,09,14,02,05,11.50
2014,09,14,02,06,11.40
2014,09,14,02,07,11.40
2014,09,14,02,08,11.30
2014,09,14,02,09,11.30
2014,09,14,02,10,11.30
2014,09,14,02,11,11.30
2014,09,14,02,12,11.20
2014,09,14,02,13,11.20
2014,09,14,02,14,11.20
2014,09,14,02,15,11.10
2014,09,14,02,16,11.10
2014,09,14,02,17,11.10
2014,09,14,02,18,11.10
2014,09,14,02,19,11.10
2014,09,14,02,20,11.00
2014,09,14,02,21,11.00
2014,09,14,02,22,11.00
2014,09,14,02,23,10.90
2014,09,14,02,24,10.90
2014,09,14,02,25,10.90
2014,09,14,02,26,10.90
2014,09,14,02,27,10.90
2014,09,14,02,28,11.00
2014,09,14,02,29,11.00
2014,09,14,02,30,11.10
2014,09,14,02,31,11.10
2014,09,14,02,32,11.10
2014,09,14,02,33,11.10
2014,09,14,02,34,11.10
2014,09,14,02,35,11.10
2014,09,14,02,36,11.20
2014,09,14,02,37,11.20
2014,09,14,02,38,11.30
2014,09,14,02,39,11.40
2014,09,14,02,40,11.50
2014,09,14,02,41,11.60
2014,09,14,02,42,11.70
2014,09,14,02,43,11.90
2014,09,14,02,44,12.00
2014,09,14,02,45,12.20
2014,09,14,02,46,12.40
2014,09,14,02,47,12.60
2014,09,14,02,48,12.70
2014,09,14,02,49,12.80
2014,09,14,02,50,12.80
2014,09,14,02,51,12.80
2014,09,14,02,52,12.90
2014,09,14,02,53,12.90
2014,09,14,02,54,12.80
2014,09,14,02,55,12.80
2014,09,14,02,56,12.80
2014,09,14,02,57,12.80
2014,09,14,02,58,12.80
2014,09,14,02,59,12.90
2014,09,14,03,00,12.90
2014,09,14,03,01,12.90
2014,09,14,03,02,12.80
2014,09,14,03,03,12.80
2014,09,14,03,04,12.80
2014,09,14,03,05,12.80
2014,09,14,03,06,12.70
2014,09,14,03,07,12.70
2014,09,14,03,08,12.60
2014,09,14,03,09,12.70
2014,09,14,03,10,12.70
2014,09,14,03,11,12.80
2014,09,14,03,12,12.90
2014,09,14,03,13,13.00
2014,09,14,03,14,13.00
2014,09,14,03,15,13.00
2014,09,14,03,16,13.00
2014,09,14,03,17,13.00
2014,09,14,03,18,13.00
2014,09,14,03,19,12.90
2014,09,14,03,20,13.00
2014,09,14,03,21,13.00
2014,09,14,03,22,13.10
2014,09,14,03,23,13.20
2014,09,14,03,24,13.20
2014,09,14,03,25,13.20
2014,09,14,03,26,13.20
2014,09,14,03,27,13.30
2014,09,14,03,28,13.30
2014,09,14,03,29,13.40
2014,09,14,03,30,13.50
2014,09,14,03,31,13.60
2014,09,14,03,32,13.80
2014,09,14,03,33,13.90
2014,09,14,03,34,14.00
2014,09,14,03,35,14.10
2014,09,14,03,36,14.20
2014,09,14,03,37,14.30
2014,09,14,03,38,14.40
2014,09,14,03,39,14.50
2014,09,14,03,40,14.60
2014,09,14,03,41,14.70
2014,09,14,03,42,14.70
2014,09,14,03,43,14.70
2014,09,14,03,44,14.80
2014,09,14,03,45,14.80
2014,09,14,03,46,14.80
2014,09,14,03,47,14.80
2014,09,14,03,48,14.80
2014,09,14,03,49,14.80
2014,09,14,03,50,14.80
2014,09,14,03,51,14.80
2014,09,14,03,52,14.80
2014,09,14,03,53,14.70
2014,09,14,03,54,14.70
2014,09,14,03,55,14.70
2014,09,14,03,56,14.60
2014,09,14,03,57,14.50
2014,09,14,03,58,14.30
2014,09,14,03,59,14.20
2014,09,14,04,00,14.10
2014,09,14,04,01,13.90
2014,09,14,04,02,13.80
2014,09,14,04,03,13.70
2014,09,14,04,04,13.50
2014,09,14,04,05,13.40
2014,09,14,04,06,13.30
2014,09,14,04,07,13.20
2014,09,14,04,08,13.10
2014,09,14,04,09,13.10
2014,09,14,04,10,13.20
2014,09,14,04,11,13.40
2014,09,14,04,12,13.50
2014,09,14,04,13,13.60
2014,09,14,04,14,13.70
2014,09,14,04,15,13.70
2014,09,14,04,16,13.60
2014,09,14,04,17,13.60
2014,09,14,04,18,13.60
2014,09,14,04,19,13.50
2014,09,14,04,20,13.50
2014,09,14,04,21,13.50
2014,09,14,04,22,13.50
2014,09,14,04,23,13.40
2014,09,14,04,24,13.40
2014,09,14,04,25,13.40
2014,09,14,04,26,13.40
2014,09,14,04,27,13.40
2014,09,14,04,28,13.40
2014,09,14,04,29,13.40
2014,09,14,04,30,13.40
2014,09,14,04,31,13.30
2014,09,14,04,32,13.20
2014,09,14,04,33,13.10
2014,09,14,04,34,13.00
2014,09,14,04,35,12.90
2014,09,14,04,36,12.80
2014,09,14,04,37,12.60
2014,09,14,04,38,12.50
2014,09,14,04,39,12.30
2014,09,14,04,40,12.20
2014,09,14,04,41,12.10
2014,09,14,04,42,12.10
2014,09,14,04,43,12.10
2014,09,14,04,44,12.00
2014,09,14,04,45,11.90
2014,09,14,04,46,11.90
2014,09,14,04,47,11.90
2014,09,14,04,48,11.90
2014,09,14,04,49,11.90
2014,09,14,04,50,11.90
2014,09,14,04,51,11.90
2014,09,14,04,52,11.90
2014,09,14,04,53,12.00
2014,09,14,04,54,12.00
2014,09,14,04,55,11.90
2014,09,14,04,56,11.80
2014,09,14,04,57,11.80
2014,09,14,04,58,11.70
2014,09,14,04,59,11.70
2014,09,14,05,00,11.60
2014,09,14,05,01,11.60
2014,09,14,05,02,11.60
2014,09,14,05,03,11.50
2014,09,14,05,04,11.50
2014,09,14,05,05,11.50
2014,09,14,05,06,11.50
2014,09,14,05,07,11.60
2014,09,14,05,08,11.60
2014,09,14,05,09,11.60
2014,09,14,05,10,11.70
2014,09,14,05,11,11.70
2014,09,14,05,12,11.70
2014,09,14,05,13,11.80
2014,09,14,05,14,11.80
2014,09,14,05,15,11.80
2014,09,14,05,16,11.90
2014,09,14,05,17,11.90
2014,09,14,05,18,11.90
2014,09,14,05,19,11.90
2014,09,14,05,20,11.90
2014,09,14,05,21,11.90
2014,09,14,05,22,11.90
2014,09,14,05,23,11.90
2014,09,14,05,24,11.90
2014,09,14,05,25,12.00
2014,09,14,05,26,12.00
2014,09,14,05,27,12.00
2014,09,14,05,28,12.10
2014,09,14,05,29,12.10
2014,09,14,05,30,12.00
2014,09,14,05,31,12.00
2014,09,14,05,32,12.00
2014,09,14,05,33,12.00
2014,09,14,05,34,11.90
2014,09,14,05,35,11.90
2014,09,14,05,36,11.80
2014,09,14,05,37,11.80
2014,09,14,05,38,11.70
2014,09,14,05,39,11.60
2014,09,14,05,40,11.60
2014,09,14,05,41,11.60
2014,09,14,05,42,11.60
2014,09,14,05,43,11.60
2014,09,14,05,44,11.60
2014,09,14,05,45,11.60
2014,09,14,05,46,11.60
2014,09,14,05,47,11.60
2014,09,14,05,48,11.60
2014,09,14,05,49,11.60
2014,09,14,05,50,11.60
2014,09,14,05,51,11.60
2014,09,14,05,52,11.60
2014,09,14,05,53,11.60
2014,09,14,05,54,11.60
2014,09,14,05,55,11.60
2014,09,14,05,56,11.60
2014,09,14,05,57,11.60
2014,09,14,05,58,11.50
2014,09,14,05,59,11.50
2014,09,14,06,00,11.40
2014,09,14,06,01,11.40
2014,09,14,06,02,11.40
2014,09,14,06,03,11.30
2014,09,14,06,04,11.20
2014,09,14,06,05,11.20
2014,09,14,06,06,11.20
2014,09,14,06,07,11.20
2014,09,14,06,08,11.20
2014,09,14,06,09,11.20
2014,09,14,06,10,11.30
2014,09,14,06,11,11.30
2014,09,14,06,12,11.40
2014,09,14,06,13,11.40
2014,09,14,06,14,11.50
2014,09,14,06,15,11.70
2014,09,14,06,16,11.70
2014,09,14,06,17,11.70
2014,09,14,06,18,11.60
2014,09,14,06,19,11.60
2014,09,14,06,20,11.50
2014,09,14,06,21,11.40
2014,09,14,06,22,11.40
2014,09,14,06,23,11.30
2014,09,14,06,24,11.30
2014,09,14,06,25,11.30
2014,09,14,06,26,11.20
2014,09,14,06,27,11.20
2014,09,14,06,28,11.10
2014,09,14,06,29,11.10
2014,09,14,06,30,11.10
2014,09,14,06,31,11.00
2014,09,14,06,32,11.00
2014,09,14,06,33,11.00
2014,09,14,06,34,11.00
2014,09,14,06,35,10.90
2014,09,14,06,36,11.00
2014,09,14,06,37,11.00
2014,09,14,06,38,10.90
2014,09,14,06,39,10.90
2014,09,14,06,40,10.90
2014,09,14,06,41,10.90
2014,09,14,06,42,10.80
2014,09,14,06,43,10.80
2014,09,14,06,44,10.80
2014,09,14,06,45,10.70
2014,09,14,06,46,10.70
2014,09,14,06,47,10.60
2014,09,14,06,48,10.60
2014,09,14,06,49,10.60
2014,09,14,06,50,10.50
2014,09,14,06,51,10.50
2014,09,14,06,52,10.50
2014,09,14,06,53,10.40
2014,09,14,06,54,10.40
2014,09,14,06,55,10.40
2014,09,14,06,56,10.40
2014,09,14,06,57,10.30
2014,09,14,06,58,10.30
2014,09,14,06,59,10.30
2014,09,14,07,00,10.30
2014,09,14,07,01,10.30
2014,09,14,07,02,10.30
2014,09,14,07,03,10.30
2014,09,14,07,04,10.30
2014,09,14,07,05,10.30
2014,09,14,07,06,10.30
2014,09,14,07,07,10.30
2014,09,14,07,08,10.30
2014,09,14,07,09,10.40
2014,09,14,07,10,10.40
2014,09,14,07,11,10.50
2014,09,14,07,12,10.50
2014,09,14,07,13,10.50
2014,09,14,07,14,10.60
2014,09,14,07,15,10.50
2014,09,14,07,16,10.50
2014,09,14,07,17,10.50
2014,09,14,07,18,10.50
2014,09,14,07,19,10.50
2014,09,14,07,20,10.60
2014,09,14,07,21,10.60
2014,09,14,07,22,10.60
2014,09,14,07,23,10.70
2014,09,14,07,24,10.70
2014,09,14,07,25,10.70
2014,09,14,07,26,10.70
2014,09,14,07,27,10.70
2014,09,14,07,28,10.80
2014,09,14,07,29,10.80
2014,09,14,07,30,10.80
2014,09,14,07,31,10.80
2014,09,14,07,32,10.80
2014,09,14,07,33,10.80
2014,09,14,07,34,10.80
2014,09,14,07,35,10.80
2014,09,14,07,36,10.80
2014,09,14,07,37,10.80
2014,09,14,07,38,10.80
2014,09,14,07,39,10.80
2014,09,14,07,40,10.80
2014,09,14,07,41,10.80
2014,09,14,07,42,10.80
2014,09,14,07,43,10.80
2014,09,14,07,44,10.90
2014,09,14,07,45,10.90
2014,09,14,07,46,10.90
2014,09,14,07,47,10.90
2014,09,14,07,48,10.90
2014,09,14,07,49,11.00
2014,09,14,07,50,11.00
2014,09,14,07,51,11.00
2014,09,14,07,52,11.10
2014,09,14,07,53,11.10
2014,09,14,07,54,11.10
2014,09,14,07,55,11.20
2014,09,14,07,56,11.20
2014,09,14,07,57,11.30
2014,09,14,07,58,11.40
2014,09,14,07,59,11.40
2014,09,14,08,00,11.50
2014,09,14,08,01,11.60
2014,09,14,08,02,11.70
2014,09,14,08,03,11.80
2014,09,14,08,04,11.80
2014,09,14,08,05,11.90
2014,09,14,08,06,12.00
2014,09,14,08,07,12.10
2014,09,14,08,08,12.20
2014,09,14,08,09,12.30
2014,09,14,08,10,12.40
2014,09,14,08,11,12.50
2014,09,14,08,12,12.60
2014,09,14,08,13,12.70
2014,09,14,08,14,12.80
2014,09,14,08,15,12.90
2014,09,14,08,16,13.00
2014,09,14,08,17,13.10
2014,09,14,08,18,13.20
2014,09,14,08,19,13.20
2014,09,14,08,20,13.30
2014,09,14,08,21,13.40
2014,09,14,08,22,13.50
2014,09,14,08,23,13.60
2014,09,14,08,24,13.70
2014,09,14,08,25,13.80
2014,09,14,08,26,13.90
2014,09,14,08,27,14.00
2014,09,14,08,28,14.10
2014,09,14,08,29,14.20
2014,09,14,08,30,14.30
2014,09,14,08,31,14.30
2014,09,14,08,32,14.40
2014,09,14,08,33,14.50
2014,09,14,08,34,14.70
2014,09,14,08,35,14.80
2014,09,14,08,36,14.90
2014,09,14,08,37,15.00
2014,09,14,08,38,15.10
2014,09,14,08,39,15.30
2014,09,14,08,40,15.40
2014,09,14,08,41,15.50
2014,09,14,08,42,15.70
2014,09,14,08,43,15.80
2014,09,14,08,44,15.90
2014,09,14,08,45,16.10
2014,09,14,08,46,16.30
2014,09,14,08,47,16.40
2014,09,14,08,48,16.60
2014,09,14,08,49,16.70
2014,09,14,08,50,16.80
2014,09,14,08,51,16.90
2014,09,14,08,52,16.90
2014,09,14,08,53,17.00
2014,09,14,08,54,17.10
2014,09,14,08,55,17.10
2014,09,14,08,56,17.20
2014,09,14,08,57,17.20
2014,09,14,08,58,17.30
2014,09,14,08,59,17.30
2014,09,14,09,00,17.40
2014,09,14,09,01,17.40
2014,09,14,09,02,17.50
2014,09,14,09,03,17.50
2014,09,14,09,04,17.60
2014,09,14,09,05,17.60
2014,09,14,09,06,17.60
2014,09,14,09,07,17.70
2014,09,14,09,08,17.70
2014,09,14,09,09,17.70
2014,09,14,09,10,17.70
2014,09,14,09,11,17.80
2014,09,14,09,12,17.80
2014,09,14,09,13,17.80
2014,09,14,09,14,17.80
2014,09,14,09,15,17.90
2014,09,14,09,16,17.90
2014,09,14,09,17,17.90
2014,09,14,09,18,17.90
2014,09,14,09,19,17.90
2014,09,14,09,20,17.80
2014,09,14,09,21,17.80
2014,09,14,09,22,17.80
2014,09,14,09,23,17.80
2014,09,14,09,24,17.80
2014,09,14,09,25,17.90
2014,09,14,09,26,17.90
2014,09,14,09,27,17.90
2014,09,14,09,28,17.90
2014,09,14,09,29,18.00
2014,09,14,09,30,18.10
2014,09,14,09,31,18.10
2014,09,14,09,32,18.10
2014,09,14,09,33,18.10
2014,09,14,09,34,18.10
2014,09,14,09,35,18.10
2014,09,14,09,36,18.10
2014,09,14,09,37,18.10
2014,09,14,09,38,18.10
2014,09,14,09,39,18.20
2014,09,14,09,40,18.20
2014,09,14,09,41,18.20
2014,09,14,09,42,18.30
2014,09,14,09,43,18.30
2014,09,14,09,44,18.40
2014,09,14,09,45,18.40
2014,09,14,09,46,18.40
2014,09,14,09,47,18.50
2014,09,14,09,48,18.60
2014,09,14,09,49,18.60
2014,09,14,09,50,18.60
2014,09,14,09,51,18.60
2014,09,14,09,52,18.70
2014,09,14,09,53,18.70
2014,09,14,09,54,18.70
2014,09,14,09,55,18.70
2014,09,14,09,56,18.70
2014,09,14,09,57,18.80
2014,09,14,09,58,18.80
2014,09,14,09,59,18.80
2014,09,14,10,00,18.90
2014,09,14,10,01,18.90
2014,09,14,10,02,19.00
2014,09,14,10,03,19.10
2014,09,14,10,04,19.20
2014,09,14,10,05,19.20
2014,09,14,10,06,19.30
2014,09,14,10,07,19.30
2014,09,14,10,08,19.30
2014,09,14,10,09,19.40
2014,09,14,10,10,19.50
2014,09,14,10,11,19.50
2014,09,14,10,12,19.60
2014,09,14,10,13,19.60
2014,09,14,10,14,19.70
2014,09,14,10,15,19.70
2014,09,14,10,16,19.80
2014,09,14,10,17,19.90
2014,09,14,10,18,20.00
2014,09,14,10,19,20.00
2014,09,14,10,20,20.00
2014,09,14,10,21,20.10
2014,09,14,10,22,20.10
2014,09,14,10,23,20.20
2014,09,14,10,24,20.30
2014,09,14,10,25,20.30
2014,09,14,10,26,20.30
2014,09,14,10,27,20.30
2014,09,14,10,28,20.40
2014,09,14,10,29,20.40
2014,09,14,10,30,20.40
2014,09,14,10,31,20.40
2014,09,14,10,32,20.40
2014,09,14,10,33,20.50
2014,09,14,10,34,20.50
2014,09,14,10,35,20.50
2014,09,14,10,36,20.50
2014,09,14,10,37,20.60
2014,09,14,10,38,20.60
2014,09,14,10,39,20.60
2014,09,14,10,40,20.60
2014,09,14,10,41,20.60
2014,09,14,10,42,20.70
2014,09,14,10,43,20.70
2014,09,14,10,44,20.80
2014,09,14,10,45,20.80
2014,09,14,10,46,20.80
2014,09,14,10,47,20.70
2014,09,14,10,48,20.70
2014,09,14,10,49,20.70
2014,09,14,10,50,20.60
2014,09,14,10,51,20.60
2014,09,14,10,52,20.60
2014,09,14,10,53,20.50
2014,09,14,10,54,20.40
2014,09,14,10,55,20.40
2014,09,14,10,56,20.50
2014,09,14,10,57,20.50
2014,09,14,10,58,20.50
2014,09,14,10,59,20.60
2014,09,14,11,00,20.50
2014,09,14,11,01,20.50
2014,09,14,11,02,20.40
2014,09,14,11,03,20.40
2014,09,14,11,04,20.40
2014,09,14,11,05,20.40
2014,09,14,11,06,20.40
2014,09,14,11,07,20.40
2014,09,14,11,08,20.50
2014,09,14,11,09,20.50
2014,09,14,11,10,20.60
2014,09,14,11,11,20.60
2014,09,14,11,12,20.70
2014,09,14,11,13,20.70
2014,09,14,11,14,20.70
2014,09,14,11,15,20.80
2014,09,14,11,16,20.90
2014,09,14,11,17,21.00
2014,09,14,11,18,21.00
2014,09,14,11,19,21.10
2014,09,14,11,20,21.10
2014,09,14,11,21,21.10
2014,09,14,11,22,21.10
2014,09,14,11,23,21.10
2014,09,14,11,24,21.10
2014,09,14,11,25,21.10
2014,09,14,11,26,21.10
2014,09,14,11,27,21.20
2014,09,14,11,28,21.20
2014,09,14,11,29,21.20
2014,09,14,11,30,21.20
2014,09,14,11,31,21.20
2014,09,14,11,32,21.30
2014,09,14,11,33,21.30
2014,09,14,11,34,21.40
2014,09,14,11,35,21.40
2014,09,14,11,36,21.50
2014,09,14,11,37,21.50
2014,09,14,11,38,21.60
2014,09,14,11,39,21.70
2014,09,14,11,40,21.80
2014,09,14,11,41,21.90
2014,09,14,11,42,22.00
2014,09,14,11,43,22.00
2014,09,14,11,44,22.00
2014,09,14,11,45,22.00
2014,09,14,11,46,21.90
2014,09,14,11,47,21.90
2014,09,14,11,48,21.90
2014,09,14,11,49,21.90
2014,09,14,11,50,21.90
2014,09,14,11,51,21.90
2014,09,14,11,52,22.00
2014,09,14,11,53,22.00
2014,09,14,11,54,22.10
2014,09,14,11,55,22.10
2014,09,14,11,56,22.10
2014,09,14,11,57,22.10
2014,09,14,11,58,22.20
2014,09,14,11,59,22.20
2014,09,14,12,00,22.30
2014,09,14,12,01,22.30
2014,09,14,12,02,22.30
2014,09,14,12,03,22.30
2014,09,14,12,04,22.40
2014,09,14,12,05,22.40
2014,09,14,12,06,22.40
2014,09,14,12,07,22.40
2014,09,14,12,08,22.50
2014,09,14,12,09,22.50
2014,09,14,12,10,22.50
2014,09,14,12,11,22.40
2014,09,14,12,12,22.40
2014,09,14,12,13,22.40
2014,09,14,12,14,22.40
2014,09,14,12,15,22.30
2014,09,14,12,16,22.30
2014,09,14,12,17,22.30
2014,09,14,12,18,22.30
2014,09,14,12,19,22.30
2014,09,14,12,20,22.30
2014,09,14,12,21,22.30
2014,09,14,12,22,22.30
2014,09,14,12,23,22.30
2014,09,14,12,24,22.30
2014,09,14,12,25,22.30
2014,09,14,12,26,22.20
2014,09,14,12,27,22.20
2014,09,14,12,28,22.10
2014,09,14,12,29,22.20
2014,09,14,12,30,22.20
2014,09,14,12,31,22.20
2014,09,14,12,32,22.30
2014,09,14,12,33,22.30
2014,09,14,12,34,22.20
2014,09,14,12,35,22.20
2014,09,14,12,36,22.20
2014,09,14,12,37,22.20
2014,09,14,12,38,22.20
2014,09,14,12,39,22.30
2014,09,14,12,40,22.30
2014,09,14,12,41,22.30
2014,09,14,12,42,22.30
2014,09,14,12,43,22.30
2014,09,14,12,44,22.30
2014,09,14,12,45,22.30
2014,09,14,12,46,22.30
2014,09,14,12,47,22.30
2014,09,14,12,48,22.30
2014,09,14,12,49,22.30
2014,09,14,12,50,22.40
2014,09,14,12,51,22.50
2014,09,14,12,52,22.60
2014,09,14,12,53,22.60
2014,09,14,12,54,22.60
2014,09,14,12,55,22.60
2014,09,14,12,56,22.60
2014,09,14,12,57,22.80
2014,09,14,12,58,22.90
2014,09,14,12,59,22.90
2014,09,14,13,00,22.90
2014,09,14,13,01,23.00
2014,09,14,13,02,23.10
2014,09,14,13,03,23.10
2014,09,14,13,04,23.20
2014,09,14,13,05,23.30
2014,09,14,13,06,23.40
2014,09,14,13,07,23.50
2014,09,14,13,08,23.60
2014,09,14,13,09,23.70
2014,09,14,13,10,23.70
2014,09,14,13,11,23.70
2014,09,14,13,12,23.60
2014,09,14,13,13,23.60
2014,09,14,13,14,23.50
2014,09,14,13,15,23.50
2014,09,14,13,16,23.40
2014,09,14,13,17,23.40
2014,09,14,13,18,23.40
2014,09,14,13,19,23.40
2014,09,14,13,20,23.40
2014,09,14,13,21,23.30
2014,09,14,13,22,23.30
2014,09,14,13,23,23.30
2014,09,14,13,24,23.20
2014,09,14,13,25,23.20
2014,09,14,13,26,23.30
2014,09,14,13,27,23.40
2014,09,14,13,28,23.40
2014,09,14,13,29,23.40
2014,09,14,13,30,23.40
2014,09,14,13,31,23.40
2014,09,14,13,32,23.40
2014,09,14,13,33,23.40
2014,09,14,13,34,23.50
2014,09,14,13,35,23.60
2014,09,14,13,36,23.70
2014,09,14,13,37,23.70
2014,09,14,13,38,23.70
2014,09,14,13,39,23.70
2014,09,14,13,40,23.80
2014,09,14,13,41,23.70
2014,09,14,13,42,23.70
2014,09,14,13,43,23.60
2014,09,14,13,44,23.60
2014,09,14,13,45,23.60
2014,09,14,13,46,23.70
2014,09,14,13,47,23.70
2014,09,14,13,48,23.60
2014,09,14,13,49,23.60
2014,09,14,13,50,23.50
2014,09,14,13,51,23.50
2014,09,14,13,52,23.40
2014,09,14,13,53,23.40
2014,09,14,13,54,23.40
2014,09,14,13,55,23.40
2014,09,14,13,56,23.50
2014,09,14,13,57,23.50
2014,09,14,13,58,23.50
2014,09,14,13,59,23.50
2014,09,14,14,00,23.50
2014,09,14,14,01,23.60
2014,09,14,14,02,23.70
2014,09,14,14,03,23.80
2014,09,14,14,04,23.90
2014,09,14,14,05,23.90
2014,09,14,14,06,23.90
2014,09,14,14,07,23.90
2014,09,14,14,08,23.90
2014,09,14,14,09,23.90
2014,09,14,14,10,23.90
2014,09,14,14,11,23.90
2014,09,14,14,12,23.90
2014,09,14,14,13,23.90
2014,09,14,14,14,23.80
2014,09,14,14,15,23.80
2014,09,14,14,16,23.80
2014,09,14,14,17,23.90
2014,09,14,14,18,23.90
2014,09,14,14,19,24.00
2014,09,14,14,20,24.20
2014,09,14,14,21,24.20
2014,09,14,14,22,24.20
2014,09,14,14,23,24.10
2014,09,14,14,24,24.00
2014,09,14,14,25,23.90
2014,09,14,14,26,24.00
2014,09,14,14,27,24.00
2014,09,14,14,28,24.00
2014,09,14,14,29,24.10
2014,09,14,14,30,24.10
2014,09,14,14,31,24.10
2014,09,14,14,32,24.10
2014,09,14,14,33,24.10
2014,09,14,14,34,24.20
2014,09,14,14,35,24.20
2014,09,14,14,36,24.20
2014,09,14,14,37,24.30
2014,09,14,14,38,24.40
2014,09,14,14,39,24.40
2014,09,14,14,40,24.50
2014,09,14,14,41,24.50
2014,09,14,14,42,24.60
2014,09,14,14,43,24.70
2014,09,14,14,44,24.70
2014,09,14,14,45,24.70
2014,09,14,14,46,24.70
2014,09,14,14,47,24.70
2014,09,14,14,48,24.70
2014,09,14,14,49,24.70
2014,09,14,14,50,24.60
2014,09,14,14,51,24.60
2014,09,14,14,52,24.60
2014,09,14,14,53,24.70
2014,09,14,14,54,24.70
2014,09,14,14,55,24.80
2014,09,14,14,56,24.80
2014,09,14,14,57,24.90
2014,09,14,14,58,25.00
2014,09,14,14,59,25.00
2014,09,14,15,00,25.00
2014,09,14,15,01,24.90
2014,09,14,15,02,24.80
2014,09,14,15,03,24.70
2014,09,14,15,04,24.60
2014,09,14,15,05,24.60
2014,09,14,15,06,24.50
2014,09,14,15,07,24.50
2014,09,14,15,08,24.40
2014,09,14,15,09,24.40
2014,09,14,15,10,24.40
2014,09,14,15,11,24.30
2014,09,14,15,12,24.30
2014,09,14,15,13,24.30
2014,09,14,15,14,24.40
2014,09,14,15,15,24.40
2014,09,14,15,16,24.40
2014,09,14,15,17,24.50
2014,09,14,15,18,24.50
2014,09,14,15,19,24.60
2014,09,14,15,20,24.60
2014,09,14,15,21,24.60
2014,09,14,15,22,24.50
2014,09,14,15,23,24.50
2014,09,14,15,24,24.50
2014,09,14,15,25,24.50
2014,09,14,15,26,24.60
2014,09,14,15,27,24.60
2014,09,14,15,28,24.60
2014,09,14,15,29,24.60
2014,09,14,15,30,24.60
2014,09,14,15,31,24.60
2014,09,14,15,32,24.60
2014,09,14,15,33,24.60
2014,09,14,15,34,24.60
2014,09,14,15,35,24.60
2014,09,14,15,36,24.70
2014,09,14,15,37,24.80
2014,09,14,15,38,24.80
2014,09,14,15,39,24.90
2014,09,14,15,40,25.00
2014,09,14,15,41,25.10
2014,09,14,15,42,25.10
2014,09,14,15,43,25.20
2014,09,14,15,44,25.20
2014,09,14,15,45,25.20
2014,09,14,15,46,25.20
2014,09,14,15,47,25.20
2014,09,14,15,48,25.20
2014,09,14,15,49,25.20
2014,09,14,15,50,25.30
2014,09,14,15,51,25.30
2014,09,14,15,52,25.30
2014,09,14,15,53,25.30
2014,09,14,15,54,25.20
2014,09,14,15,55,25.20
2014,09,14,15,56,25.20
2014,09,14,15,57,25.20
2014,09,14,15,58,25.30
2014,09,14,15,59,25.30
2014,09,14,16,00,25.40
2014,09,14,16,01,25.50
2014,09,14,16,02,25.60
2014,09,14,16,03,25.70
2014,09,14,16,04,25.80
2014,09,14,16,05,25.80
2014,09,14,16,06,25.90
2014,09,14,16,07,25.80
2014,09,14,16,08,25.70
2014,09,14,16,09,25.70
2014,09,14,16,10,25.70
2014,09,14,16,11,25.60
2014,09,14,16,12,25.60
2014,09,14,16,13,25.60
2014,09,14,16,14,25.60
2014,09,14,16,15,25.60
2014,09,14,16,16,25.60
2014,09,14,16,17,25.70
2014,09,14,16,18,25.70
2014,09,14,16,19,25.80
2014,09,14,16,20,25.90
2014,09,14,16,21,26.00
2014,09,14,16,22,26.00
2014,09,14,16,23,26.10
2014,09,14,16,24,26.10
2014,09,14,16,25,26.20
2014,09,14,16,26,26.20
2014,09,14,16,27,26.30
2014,09,14,16,28,26.30
2014,09,14,16,29,26.30
2014,09,14,16,30,26.40
2014,09,14,16,31,26.40
2014,09,14,16,32,26.30
2014,09,14,16,33,26.30
2014,09,14,16,34,26.20
2014,09,14,16,35,26.10
2014,09,14,16,36,26.10
2014,09,14,16,37,26.00
2014,09,14,16,38,25.90
2014,09,14,16,39,25.80
2014,09,14,16,40,25.80
2014,09,14,16,41,25.80
2014,09,14,16,42,25.80
2014,09,14,16,43,25.80
2014,09,14,16,44,25.70
2014,09,14,16,45,25.60
2014,09,14,16,46,25.60
2014,09,14,16,47,25.60
2014,09,14,16,48,25.60
2014,09,14,16,49,25.60
2014,09,14,16,50,25.60
2014,09,14,16,51,25.60
2014,09,14,16,52,25.60
2014,09,14,16,53,25.70
2014,09,14,16,54,25.60
2014,09,14,16,55,25.70
2014,09,14,16,56,25.70
2014,09,14,16,57,25.70
2014,09,14,16,58,25.70
2014,09,14,16,59,25.70
2014,09,14,17,00,25.80
2014,09,14,17,01,25.80
2014,09,14,17,02,25.80
2014,09,14,17,03,25.80
2014,09,14,17,04,25.80
2014,09,14,17,05,25.80
2014,09,14,17,06,25.60
2014,09,14,17,07,25.50
2014,09,14,17,08,25.50
2014,09,14,17,09,25.40
2014,09,14,17,10,25.40
2014,09,14,17,11,25.40
2014,09,14,17,12,25.40
2014,09,14,17,13,25.40
2014,09,14,17,14,25.50
2014,09,14,17,15,25.60
2014,09,14,17,16,25.60
2014,09,14,17,17,25.60
2014,09,14,17,18,25.70
2014,09,14,17,19,25.70